(261448) = 2005 VO30

Discovered at Kitt Peak on 2005-11-04 by Spacewatch.

Orbit

Orbit type: Main Belt

Note: WebGL enabled browser required.

epoch2024-03-31.0
epoch JD2460400.5
perihelion date2022-06-26.45480
perihelion JD2459756.95480
argument of perihelion (°)6.50368
ascending node (°)70.49667
inclination (°)13.43738
eccentricity0.1974307
perihelion distance (AU)2.5013982
Tisserand w.r.t. Jupiter3.1
ΔV w.r.t. Earth (km/sec)10.7
semimajor axis (AU)3.1167379
mean anomaly (°)115.27436
mean daily motion (°/day)0.17912400
aphelion distance (AU)3.732
period (years)5.5
P-vector [x]0.22786793
P-vector [y]0.88254852
P-vector [z]0.41132021
Q-vector [x]-0.94873275
Q-vector [y]0.10621005
Q-vector [z]0.29770053
absolute magnitude15.52
phase slope0.15
uncertainty0
referenceE2024-G95
observations used510
oppositions14
arc length (days)8480
first opposition used2001
last opposition used2024
residual rms (arc-secs)0.67
perturbers coarse indicatorM-v
perturbers precise indicator003Ek
first observation date used2001-01-18.0
last observation date used2024-04-07.0
computer nameMPCLINUX
JD of orbit computation2456406.168276
perihelion JD uncertainty (days)1.3398E-04
argument of perihelion uncertainty (°)3.4876E-05
ascending node uncertainty (°)2.0009E-05
inclination uncertainty (°)7.1048E-06
eccentricity uncertainty 6.3880E-08
perihelion distance uncertainty (AU)1.9617E-07
Minimum Orbit Intersection Distances (in AU)
for orbit epoch: 2460400.5, reference: E2024-G95
Mercury2.19408
Venus1.78115
Earth1.51746
Mars0.94789
Jupiter1.57372
Saturn6.31599
Uranus15.2161
Neptune26.7619

Observations

514 total observations over interval: 2001 01 18.35540 – 2023 04 11.190429
These data are available for download (format description).

Date (UT) J2000 RA J2000 Dec Magn Location Ref
2001 01 18.35540 09 16 45.80 +34 18 00.8 18.9   704 – Lincoln Laboratory ETS, New Mexico MPS 156110
2001 01 18.37222 09 16 44.91 +34 18 09.4 19.9   704 – Lincoln Laboratory ETS, New Mexico MPS 156110
2001 01 18.39020 09 16 44.06 +34 18 18.5 19.5   704 – Lincoln Laboratory ETS, New Mexico MPS 156110
2001 01 18.40986 09 16 42.95 +34 18 26.4 19.4   704 – Lincoln Laboratory ETS, New Mexico MPS 156110
2001 01 18.42703 09 16 42.13 +34 18 34.7 18.7   704 – Lincoln Laboratory ETS, New Mexico MPS 156110
2001 02 16.24985 08 50 33.71 +36 49 58.1 19.3   704 – Lincoln Laboratory ETS, New Mexico MPS 156111
2001 02 16.26440 08 50 33.15 +36 50 00.2 19.9   704 – Lincoln Laboratory ETS, New Mexico MPS 156111
2001 02 16.28631 08 50 32.03 +36 50 01.9 19.1   704 – Lincoln Laboratory ETS, New Mexico MPS 156111
2001 02 16.30159 08 50 31.17 +36 50 04.8 19.2   704 – Lincoln Laboratory ETS, New Mexico MPS 156111
2005 10 28.31709 04 50 08.92 +17 54 17.7 19.2   704 – Lincoln Laboratory ETS, New Mexico MPS 151181
2005 10 28.32956 04 50 08.58 +17 54 20.2 19.2   704 – Lincoln Laboratory ETS, New Mexico MPS 151181
2005 10 28.34163 04 50 08.32 +17 54 23.3 19.7   704 – Lincoln Laboratory ETS, New Mexico MPS 151181
2005 10 28.35660 04 50 07.91 +17 54 27.1 20.1   704 – Lincoln Laboratory ETS, New Mexico MPS 151181
2005 10 28.36855 04 50 07.59 +17 54 28.3 20.3   704 – Lincoln Laboratory ETS, New Mexico MPS 151181
2005 10 30.41566 04 49 16.98 +18 02 35.7 19.6 R 644 – Palomar Mountain/NEAT MPS 151181
2005 10 30.43778 04 49 16.31 +18 02 41.1 20.0 R 644 – Palomar Mountain/NEAT MPS 151181
2005 10 30.45986 04 49 15.68 +18 02 45.7 19.6 R 644 – Palomar Mountain/NEAT MPS 151181
2005 11 04.42214 04 46 41.63 +18 22 52.6 19.1 V 691 – Steward Observatory, Kitt Peak-Spacewatch MPS 151181
2005 11 04.43959 04 46 40.97 +18 22 56.7 19.1 V 691 – Steward Observatory, Kitt Peak-Spacewatch MPS 151181
2005 11 04.45703 04 46 40.33 +18 23 01.0 19.1 V 691 – Steward Observatory, Kitt Peak-Spacewatch MPS 151181
2005 11 05.41800 04 46 05.64 +18 26 59.3 19.1 V 691 – Steward Observatory, Kitt Peak-Spacewatch MPS 151181
2005 11 05.43535 04 46 04.96 +18 27 03.7 19.0 V 691 – Steward Observatory, Kitt Peak-Spacewatch MPS 151181
2005 11 05.45283 04 46 04.28 +18 27 07.7 19.0 V 691 – Steward Observatory, Kitt Peak-Spacewatch MPS 151181
2005 11 21.40323 04 33 16.09 +19 35 44.7 17.9 V 703 – Catalina Sky Survey MPS 151181
2005 11 21.40968 04 33 15.69 +19 35 45.7 18.1 V 703 – Catalina Sky Survey MPS 151181
2005 11 21.41619 04 33 15.33 +19 35 47.5 18.1 V 703 – Catalina Sky Survey MPS 151181
2005 11 21.42264 04 33 14.90 +19 35 49.4 18.2 V 703 – Catalina Sky Survey MPS 151181
2005 11 28.32712 04 26 27.02 +20 06 10.8 18.1 V G96 – Mt. Lemmon Survey MPS 152334
2005 11 28.33360 04 26 26.62 +20 06 12.7 18.0 V G96 – Mt. Lemmon Survey MPS 152334
2005 11 28.34021 04 26 26.19 +20 06 14.4 18.1 V G96 – Mt. Lemmon Survey MPS 152334
2005 11 28.34655 04 26 25.80 +20 06 16.1 18.0 V G96 – Mt. Lemmon Survey MPS 152334
2005 11 28.36888 04 26 24.36 +20 06 21.8 17.9 V 703 – Catalina Sky Survey MPS 152334
2005 11 28.37801 04 26 23.71 +20 06 25.6 17.5 V 703 – Catalina Sky Survey MPS 152334
2005 11 28.38710 04 26 23.28 +20 06 27.4 17.5 V 703 – Catalina Sky Survey MPS 152334
2005 11 29.26444 04 25 30.27 +20 10 18.0 18.0   704 – Lincoln Laboratory ETS, New Mexico MPS 152334
2005 11 29.27729 04 25 29.51 +20 10 21.6 18.3   704 – Lincoln Laboratory ETS, New Mexico MPS 152334
2005 11 29.29050 04 25 28.61 +20 10 25.1 18.3   704 – Lincoln Laboratory ETS, New Mexico MPS 152334
2005 11 29.30351 04 25 27.80 +20 10 28.6 18.4   704 – Lincoln Laboratory ETS, New Mexico MPS 152334
2005 11 29.31634 04 25 27.00 +20 10 32.0 18.4   704 – Lincoln Laboratory ETS, New Mexico MPS 152334
2005 11 29.42780 04 25 20.02 +20 11 00.5 17.9 V G96 – Mt. Lemmon Survey MPS 152334
2005 11 29.44262 04 25 19.12 +20 11 04.5 17.5 V G96 – Mt. Lemmon Survey MPS 152334
2005 11 29.47176 04 25 17.29 +20 11 11.6 17.9 V G96 – Mt. Lemmon Survey MPS 152334
2005 12 01.26257 04 23 28.73 +20 19 03.6 18.4   704 – Lincoln Laboratory ETS, New Mexico MPS 153871
2005 12 01.27563 04 23 27.90 +20 19 07.2 18.5   704 – Lincoln Laboratory ETS, New Mexico MPS 153871
2005 12 01.28877 04 23 27.12 +20 19 10.3 19.0   704 – Lincoln Laboratory ETS, New Mexico MPS 153871
2005 12 01.30171 04 23 26.20 +20 19 14.2 18.9   704 – Lincoln Laboratory ETS, New Mexico MPS 153871
2005 12 01.31458 04 23 25.43 +20 19 17.3 18.6   704 – Lincoln Laboratory ETS, New Mexico MPS 153871
2005 12 04.25968 04 20 26.93 +20 32 08.9 18.3   704 – Lincoln Laboratory ETS, New Mexico MPS 153871
2005 12 04.27261 04 20 26.13 +20 32 12.3 18.4   704 – Lincoln Laboratory ETS, New Mexico MPS 153871
2005 12 04.28593 04 20 25.29 +20 32 15.3 18.7   704 – Lincoln Laboratory ETS, New Mexico MPS 153871
2005 12 04.29898 04 20 24.47 +20 32 19.2 18.7   704 – Lincoln Laboratory ETS, New Mexico MPS 153871
2005 12 04.30120 04 20 24.39 +20 32 19.8 17.9 V G96 – Mt. Lemmon Survey MPS 153871
2005 12 04.30617 04 20 24.07 +20 32 21.1 17.8 V G96 – Mt. Lemmon Survey MPS 153871
2005 12 04.31117 04 20 23.74 +20 32 22.4 17.7 V G96 – Mt. Lemmon Survey MPS 153871
2005 12 04.31192 04 20 23.65 +20 32 22.2 18.8   704 – Lincoln Laboratory ETS, New Mexico MPS 153871
2005 12 04.31620 04 20 23.46 +20 32 23.7 17.8 V G96 – Mt. Lemmon Survey MPS 153871
2005 12 05.24034 04 19 27.93 +20 36 25.5 18.4   704 – Lincoln Laboratory ETS, New Mexico MPS 153871
2005 12 05.25327 04 19 27.15 +20 36 28.9 18.6   704 – Lincoln Laboratory ETS, New Mexico MPS 153871
2005 12 05.26672 04 19 26.31 +20 36 32.1 18.6   704 – Lincoln Laboratory ETS, New Mexico MPS 153871
2005 12 05.27973 04 19 25.51 +20 36 35.7 18.7   704 – Lincoln Laboratory ETS, New Mexico MPS 153871
2005 12 05.28398 04 19 25.25 +20 36 36.4 18.2 R 699 – Lowell Observatory-LONEOS MPS 153871
2005 12 05.29273 04 19 24.67 +20 36 39.0 18.8   704 – Lincoln Laboratory ETS, New Mexico MPS 153871
2005 12 05.30593 04 19 23.87 +20 36 43.0   699 – Lowell Observatory-LONEOS MPS 153871
2005 12 05.32788 04 19 22.54 +20 36 48.2   699 – Lowell Observatory-LONEOS MPS 153871
2005 12 05.34984 04 19 21.16 +20 36 53.9   699 – Lowell Observatory-LONEOS MPS 153871
2005 12 06.18678 04 18 31.46 +20 40 31.6 18.7   704 – Lincoln Laboratory ETS, New Mexico MPS 153871
2005 12 06.21240 04 18 29.83 +20 40 39.0 18.7   704 – Lincoln Laboratory ETS, New Mexico MPS 153871
2005 12 06.22510 04 18 29.08 +20 40 42.4 18.9   704 – Lincoln Laboratory ETS, New Mexico MPS 153871
2005 12 06.23819 04 18 28.25 +20 40 45.2 18.7   704 – Lincoln Laboratory ETS, New Mexico MPS 153871
2005 12 06.27170 04 18 26.16 +20 40 55.0 19.3   704 – Lincoln Laboratory ETS, New Mexico MPS 153871
2005 12 06.28436 04 18 25.40 +20 40 57.5 19.0   704 – Lincoln Laboratory ETS, New Mexico MPS 153871
2005 12 06.29723 04 18 24.62 +20 41 01.2 19.4   704 – Lincoln Laboratory ETS, New Mexico MPS 153871
2005 12 06.31067 04 18 23.83 +20 41 04.7 19.6   704 – Lincoln Laboratory ETS, New Mexico MPS 153871
2005 12 08.19096 04 16 32.95 +20 49 13.3 18.8   704 – Lincoln Laboratory ETS, New Mexico MPS 153871
2005 12 08.20408 04 16 32.17 +20 49 17.6 19.2   704 – Lincoln Laboratory ETS, New Mexico MPS 153871
2005 12 08.21707 04 16 31.44 +20 49 20.0 19.0   704 – Lincoln Laboratory ETS, New Mexico MPS 153871
2005 12 08.22991 04 16 30.64 +20 49 23.2 19.1   704 – Lincoln Laboratory ETS, New Mexico MPS 153871
2005 12 08.24315 04 16 29.82 +20 49 27.2 19.1   704 – Lincoln Laboratory ETS, New Mexico MPS 153871
2005 12 09.19989 04 15 34.23 +20 53 36.5 18.5   704 – Lincoln Laboratory ETS, New Mexico MPS 155406
2005 12 09.21309 04 15 33.49 +20 53 39.8 19.2   704 – Lincoln Laboratory ETS, New Mexico MPS 155406
2005 12 09.22611 04 15 32.68 +20 53 43.3 19.0   704 – Lincoln Laboratory ETS, New Mexico MPS 155406
2005 12 09.23908 04 15 31.90 +20 53 46.3 19.0   704 – Lincoln Laboratory ETS, New Mexico MPS 155406
2005 12 09.25234 04 15 31.13 +20 53 50.0 19.0   704 – Lincoln Laboratory ETS, New Mexico MPS 155406
2005 12 10.12873 04 14 40.88 +20 57 36.6 18.2 R 699 – Lowell Observatory-LONEOS MPS 155406
2005 12 10.15159 04 14 39.62 +20 57 42.8   699 – Lowell Observatory-LONEOS MPS 155406
